QPF
0.00 0.00 0.00 0.01 0.03 0.09 0.14 0.10 0.02 0.00 0.00 0.01 0.01 0.01 0.02 0.02 0.04 0.09 0.04 0.00 0.01 0.00 0.00 0.00 0.00 0.00 0.00 0.01 0.02 0.03 0.04 0.04 0.03 0.03 0.02 0.02 0.02 0.01 0.00 0.00 0.00 0.01 0.01 0.01 0.01 0.02 0.02 0.01 0.01
0.00 0.00 0.01 0.02 0.06 0.12 0.16 0.09 0.02 0.00 0.00 0.00 0.00 0.01 0.02 0.02 0.01 0.01 0.01 0.00 0.01 0.00 0.00 0.00 0.00 0.00 0.00 0.01 0.01 0.03 0.03 0.04 0.04 0.03 0.02 0.02 0.01 0.01 0.01 0.00 0.00 0.00 0.01 0.00 0.00 0.01 0.01 0.01 0.00
0.00 0.01 0.01 0.02 0.04 0.05 0.04 0.02 0.00 0.00 0.00 0.00 0.00 0.00 0.01 0.01 0.01 0.01 0.00 0.00 0.01 0.01 0.00 0.00 0.00 0.00 0.01 0.01 0.01 0.02 0.03 0.04 0.04 0.03 0.02 0.02 0.01 0.01 0.01 0.01 0.01 0.01 0.00 0.00 0.00 0.00 0.01 0.00 0.00
0.00 0.01 0.01 0.03 0.04 0.03 0.01 0.00 0.00 0.00 0.00 0.00 0.00 0.02 0.04 0.01 0.01 0.01 0.01 0.01 0.02 0.02 0.01 0.00 0.00 0.00 0.00 0.01 0.02 0.03 0.03 0.03 0.03 0.03 0.02 0.02 0.02 0.01 0.01 0.01 0.01 0.01 0.01 0.01 0.00 0.01 0.01 0.00 0.00
0.00 0.01 0.02 0.02 0.02 0.03 0.01 0.00 0.00 0.01 0.01 0.01 0.01 0.04 0.06 0.02 0.01 0.01 0.02 0.03 0.05 0.04 0.02 0.00 0.00 0.01 0.01 0.01 0.01 0.02 0.03 0.03 0.02 0.02 0.02 0.01 0.01 0.01 0.01 0.01 0.01 0.01 0.01 0.01 0.01 0.01 0.01 0.00 0.00
0.00 0.01 0.02 0.02 0.02 0.03 0.01 0.00 0.00 0.02 0.06 0.03 0.01 0.03 0.04 0.03 0.01 0.01 0.02 0.05 0.07 0.05 0.02 0.01 0.01 0.01 0.01 0.01 0.01 0.01 0.02 0.02 0.02 0.01 0.01 0.01 0.00 0.00 0.00 0.00 0.01 0.01 0.01 0.01 0.01 0.01 0.01 0.01 0.00
0.00 0.00 0.01 0.01 0.02 0.02 0.00 0.00 0.00 0.01 0.03 0.01 0.01 0.05 0.12 0.15 0.04 0.01 0.01 0.04 0.04 0.03 0.02 0.01 0.01 0.00 0.01 0.01 0.01 0.01 0.01 0.01 0.01 0.01 0.01 0.00 0.00 0.00 0.00 0.01 0.01 0.01 0.01 0.02 0.02 0.02 0.01 0.01 0.01
0.00 0.00 0.00 0.00 0.00 0.00 0.00 0.00 0.00 0.00 0.01 0.01 0.01 0.04 0.18 0.16 0.04 0.01 0.01 0.01 0.01 0.01 0.02 0.01 0.01 0.01 0.01 0.01 0.01 0.01 0.01 0.01 0.01 0.01 0.01 0.00 0.00 0.01 0.01 0.01 0.02 0.01 0.01 0.02 0.02 0.02 0.02 0.02 0.01
0.00 0.00 0.00 0.00 0.00 0.00 0.00 0.00 0.00 0.00 0.02 0.04 0.01 0.03 0.14 0.09 0.02 0.01 0.01 0.01 0.01 0.01 0.01 0.01 0.01 0.02 0.03 0.04 0.02 0.02 0.01 0.01 0.01 0.02 0.02 0.01 0.03 0.06 0.05 0.04 0.04 0.03 0.02 0.02 0.03 0.04 0.04 0.03 0.02
0.00 0.00 0.00 0.00 0.00 0.00 0.00 0.00 0.00 0.00 0.04 0.12 0.07 0.04 0.05 0.03 0.03 0.03 0.03 0.03 0.03 0.03 0.02 0.04 0.06 0.05 0.05 0.07 0.07 0.07 0.06 0.07 0.06 0.09 0.09 0.09 0.11 0.12 0.09 0.09 0.07 0.04 0.03 0.03 0.04 0.05 0.04 0.03 0.05
0.00 0.00 0.00 0.00 0.00 0.00 0.00 0.00 0.00 0.01 0.12 0.21 0.13 0.09 0.03 0.03 0.06 0.08 0.10 0.10 0.07 0.04 0.07 0.08 0.07 0.07 0.07 0.10 0.10 0.10 0.11 0.15 0.12 0.14 0.13 0.14 0.13 0.12 0.10 0.14 0.14 0.11 0.09 0.11 0.14 0.11 0.07 0.10 0.14
0.00 0.00 0.00 0.00 0.00 0.00 0.00 0.00 0.00 0.01 0.07 0.12 0.09 0.10 0.05 0.05 0.12 0.14 0.09 0.11 0.08 0.07 0.10 0.13 0.06 0.07 0.10 0.13 0.11 0.09 0.10 0.15 0.17 0.18 0.16 0.13 0.15 0.14 0.14 0.16 0.17 0.17 0.17 0.18 0.18 0.19 0.16 0.17 0.26
0.00 0.00 0.00 0.00 0.00 0.00 0.00 0.00 0.02 0.06 0.07 0.06 0.08 0.14 0.11 0.10 0.17 0.19 0.11 0.14 0.09 0.09 0.11 0.09 0.08 0.10 0.12 0.12 0.13 0.09 0.10 0.11 0.12 0.13 0.15 0.14 0.17 0.17 0.16 0.16 0.17 0.16 0.16 0.17 0.17 0.21 0.24 0.22 0.18
0.00 0.00 0.00 0.00 0.00 0.00 0.01 0.03 0.05 0.07 0.04 0.04 0.07 0.18 0.23 0.22 0.27 0.16 0.08 0.08 0.06 0.09 0.14 0.09 0.08 0.10 0.11 0.12 0.13 0.12 0.11 0.12 0.13 0.15 0.15 0.14 0.17 0.21 0.22 0.18 0.17 0.16 0.18 0.20 0.20 0.21 0.23 0.21 0.17
0.00 0.01 0.01 0.01 0.00 0.01 0.03 0.11 0.13 0.09 0.03 0.04 0.05 0.13 0.22 0.32 0.33 0.23 0.13 0.07 0.04 0.09 0.12 0.12 0.09 0.09 0.09 0.09 0.10 0.11 0.12 0.13 0.12 0.13 0.13 0.12 0.12 0.13 0.13 0.13 0.15 0.14 0.14 0.13 0.14 0.15 0.15 0.14 0.14
0.01 0.06 0.05 0.03 0.01 0.01 0.05 0.23 0.20 0.11 0.07 0.06 0.05 0.07 0.13 0.22 0.31 0.24 0.16 0.12 0.09 0.10 0.13 0.13 0.09 0.08 0.08 0.08 0.08 0.10 0.09 0.09 0.09 0.11 0.15 0.14 0.10 0.08 0.08 0.07 0.07 0.07 0.09 0.09 0.08 0.08 0.09 0.11 0.11
0.01 0.02 0.03 0.03 0.01 0.01 0.04 0.17 0.15 0.07 0.10 0.11 0.10 0.10 0.10 0.12 0.15 0.17 0.15 0.15 0.13 0.14 0.17 0.16 0.12 0.10 0.08 0.06 0.07 0.09 0.10 0.08 0.08 0.11 0.15 0.09 0.06 0.04 0.05 0.04 0.05 0.04 0.04 0.05 0.05 0.07 0.08 0.09 0.10
0.00 0.01 0.02 0.02 0.01 0.01 0.07 0.16 0.10 0.06 0.12 0.12 0.11 0.10 0.09 0.08 0.08 0.08 0.10 0.16 0.13 0.11 0.11 0.09 0.11 0.16 0.14 0.09 0.08 0.08 0.09 0.07 0.06 0.07 0.06 0.06 0.04 0.03 0.03 0.03 0.03 0.02 0.02 0.03 0.03 0.04 0.05 0.05 0.06
0.00 0.01 0.01 0.01 0.01 0.01 0.03 0.07 0.05 0.03 0.08 0.11 0.11 0.14 0.11 0.08 0.07 0.07 0.07 0.07 0.08 0.07 0.06 0.07 0.08 0.07 0.08 0.09 0.07 0.06 0.05 0.03 0.02 0.02 0.03 0.03 0.03 0.02 0.01 0.01 0.02 0.02 0.02 0.02 0.03 0.03 0.03 0.04 0.05
0.00 0.01 0.02 0.01 0.01 0.01 0.04 0.08 0.06 0.02 0.03 0.06 0.08 0.10 0.09 0.07 0.06 0.07 0.04 0.05 0.06 0.05 0.04 0.04 0.04 0.04 0.04 0.04 0.04 0.04 0.03 0.02 0.01 0.01 0.01 0.01 0.01 0.01 0.01 0.02 0.01 0.02 0.02 0.01 0.02 0.02 0.03 0.03 0.04
0.01 0.02 0.02 0.01 0.01 0.02 0.05 0.14 0.13 0.05 0.02 0.02 0.05 0.04 0.04 0.05 0.05 0.03 0.02 0.02 0.02 0.02 0.02 0.03 0.03 0.03 0.03 0.02 0.02 0.02 0.02 0.02 0.02 0.02 0.02 0.01 0.01 0.01 0.01 0.01 0.01 0.01 0.01 0.01 0.02 0.01 0.02 0.02 0.02
0.01 0.00 0.01 0.00 0.02 0.09 0.08 0.16 0.17 0.07 0.03 0.02 0.03 0.02 0.03 0.03 0.02 0.02 0.02 0.01 0.01 0.01 0.01 0.01 0.02 0.02 0.02 0.02 0.03 0.02 0.01 0.01 0.01 0.01 0.01 0.01 0.00 0.01 0.01 0.01 0.01 0.02 0.01 0.01 0.01 0.01 0.01 0.01 0.01
0.01 0.00 0.00 0.00 0.02 0.08 0.09 0.08 0.13 0.08 0.07 0.06 0.03 0.02 0.03 0.04 0.02 0.01 0.01 0.00 0.00 0.00 0.00 0.01 0.02 0.02 0.01 0.02 0.02 0.02 0.02 0.01 0.01 0.01 0.01 0.01 0.00 0.01 0.00 0.00 0.01 0.02 0.01 0.01 0.01 0.02 0.01 0.01 0.01
0.00 0.00 0.02 0.02 0.07 0.16 0.05 0.03 0.08 0.08 0.05 0.03 0.02 0.01 0.01 0.02 0.01 0.01 0.01 0.00 0.00 0.00 0.00 0.01 0.03 0.02 0.01 0.01 0.01 0.02 0.02 0.02 0.02 0.02 0.02 0.01 0.01 0.01 0.00 0.00 0.01 0.01 0.01 0.01 0.01 0.02 0.01 0.01 0.01
0.01 0.02 0.07 0.12 0.22 0.16 0.03 0.01 0.02 0.01 0.00 0.00 0.01 0.00 0.00 0.00 0.00 0.00 0.00 0.00 0.00 0.00 0.00 0.00 0.02 0.02 0.02 0.01 0.01 0.02 0.02 0.01 0.02 0.01 0.01 0.01 0.00 0.00 0.00 0.00 0.00 0.01 0.01 0.01 0.01 0.01 0.01 0.01 0.02
0.01 0.01 0.04 0.08 0.13 0.09 0.04 0.01 0.00 0.00 0.00 0.00 0.01 0.00 0.00 0.00 0.00 0.00 0.00 0.01 0.00 0.00 0.00 0.00 0.01 0.02 0.01 0.01 0.01 0.01 0.01 0.01 0.01 0.01 0.00 0.00 0.00 0.00 0.00 0.00 0.00 0.00 0.00 0.00 0.01 0.01 0.01 0.01 0.01
0.00 0.00 0.01 0.01 0.02 0.04 0.03 0.02 0.01 0.00 0.00 0.00 0.00 0.00 0.00 0.00 0.00 0.00 0.01 0.01 0.00 0.00 0.00 0.00 0.00 0.01 0.01 0.00 0.00 0.00 0.00 0.00 0.00 0.00 0.00 0.00 0.00 0.00 0.00 0.00 0.00 0.00 0.00 0.01 0.01 0.01 0.01 0.01 0.01
0.00 0.00 0.00 0.00 0.02 0.05 0.04 0.03 0.03 0.01 0.00 0.00 0.00 0.00 0.00 0.00 0.00 0.00 0.00 0.00 0.00 0.00 0.00 0.00 0.00 0.00 0.00 0.00 0.00 0.00 0.00 0.00 0.00 0.00 0.00 0.00 0.00 0.00 0.00 0.00 0.00 0.01 0.01 0.01 0.01 0.01 0.01 0.02 0.01
0.00 0.00 0.00 0.00 0.00 0.04 0.11 0.07 0.02 0.00 0.00 0.00 0.00 0.00 0.00 0.00 0.00 0.00 0.00 0.00 0.00 0.00 0.00 0.00 0.00 0.00 0.00 0.00 0.00 0.00 0.00 0.00 0.00 0.00 0.00 0.00 0.00 0.00 0.00 0.01 0.01 0.01 0.01 0.01 0.01 0.01 0.01 0.01 0.02
0.00 0.00 0.00 0.00 0.00 0.01 0.04 0.04 0.01 0.00 0.00 0.00 0.00 0.00 0.00 0.00 0.00 0.00 0.00 0.00 0.00 0.00 0.00 0.00 0.00 0.00 0.00 0.00 0.00 0.00 0.00 0.00 0.00 0.00 0.00 0.00 0.00 0.00 0.00 0.01 0.01 0.00 0.00 0.01 0.01 0.01 0.01 0.01 0.01
MSLP
1008.59 1009.24 1009.98 1010.63 1011.02 1011.04 1010.64 1009.88 1008.88 1007.80 1006.84 1006.14 1005.77 1005.73 1005.97 1006.37 1006.83 1007.25 1007.59 1007.87 1008.14 1008.47 1008.92 1009.50 1010.21 1010.97 1011.72 1012.37 1012.87 1013.22 1013.44 1013.59 1013.74 1013.94 1014.22 1014.57 1014.94 1015.30 1015.58 1015.77 1015.87 1015.90 1015.92 1015.96 1016.05 1016.20 1016.40 1016.60 1016.78
1008.78 1009.49 1010.21 1010.76 1011.01 1010.85 1010.26 1009.33 1008.19 1007.02 1006.00 1005.26 1004.87 1004.81 1005.02 1005.40 1005.85 1006.29 1006.71 1007.11 1007.54 1008.07 1008.72 1009.49 1010.35 1011.22 1012.01 1012.66 1013.13 1013.43 1013.62 1013.75 1013.90 1014.12 1014.42 1014.78 1015.15 1015.49 1015.73 1015.87 1015.92 1015.92 1015.92 1015.97 1016.09 1016.28 1016.51 1016.74 1016.93
1009.03 1009.74 1010.39 1010.80 1010.87 1010.52 1009.77 1008.71 1007.50 1006.32 1005.32 1004.61 1004.24 1004.18 1004.37 1004.71 1005.12 1005.54 1005.97 1006.44 1006.99 1007.68 1008.51 1009.45 1010.45 1011.42 1012.26 1012.92 1013.38 1013.66 1013.81 1013.93 1014.08 1014.31 1014.62 1014.98 1015.34 1015.64 1015.84 1015.94 1015.95 1015.94 1015.94 1016.01 1016.16 1016.38 1016.64 1016.89 1017.07
1009.28 1009.95 1010.47 1010.72 1010.59 1010.06 1009.18 1008.07 1006.88 1005.77 1004.88 1004.28 1004.00 1003.98 1004.15 1004.43 1004.76 1005.11 1005.51 1005.98 1006.60 1007.38 1008.33 1009.41 1010.52 1011.56 1012.45 1013.13 1013.58 1013.84 1013.98 1014.09 1014.24 1014.47 1014.78 1015.13 1015.46 1015.73 1015.90 1015.97 1015.97 1015.95 1015.97 1016.07 1016.27 1016.52 1016.80 1017.04 1017.20
1009.51 1010.07 1010.43 1010.48 1010.15 1009.48 1008.53 1007.44 1006.35 1005.41 1004.72 1004.31 1004.16 1004.21 1004.39 1004.61 1004.84 1005.08 1005.39 1005.81 1006.41 1007.22 1008.23 1009.37 1010.55 1011.64 1012.55 1013.23 1013.67 1013.93 1014.07 1014.18 1014.33 1014.56 1014.87 1015.20 1015.52 1015.76 1015.90 1015.95 1015.96 1015.96 1016.02 1016.17 1016.40 1016.69 1016.98 1017.20 1017.33
1009.67 1010.09 1010.26 1010.10 1009.60 1008.82 1007.86 1006.85 1005.94 1005.25 1004.81 1004.64 1004.67 1004.83 1005.02 1005.18 1005.31 1005.42 1005.60 1005.92 1006.46 1007.23 1008.23 1009.38 1010.56 1011.64 1012.55 1013.22 1013.65 1013.90 1014.04 1014.16 1014.32 1014.56 1014.86 1015.18 1015.48 1015.70 1015.84 1015.89 1015.91 1015.95 1016.06 1016.26 1016.54 1016.85 1017.14 1017.34 1017.43
1009.75 1010.00 1009.96 1009.61 1008.97 1008.13 1007.21 1006.35 1005.66 1005.24 1005.10 1005.18 1005.41 1005.67 1005.89 1006.01 1006.03 1006.02 1006.07 1006.27 1006.71 1007.41 1008.34 1009.43 1010.56 1011.60 1012.46 1013.10 1013.51 1013.75 1013.90 1014.03 1014.21 1014.46 1014.77 1015.09 1015.37 1015.58 1015.71 1015.77 1015.82 1015.90 1016.06 1016.30 1016.62 1016.95 1017.24 1017.43 1017.47
1009.74 1009.81 1009.59 1009.07 1008.33 1007.48 1006.64 1005.95 1005.50 1005.36 1005.48 1005.80 1006.20 1006.56 1006.81 1006.90 1006.85 1006.73 1006.67 1006.76 1007.10 1007.70 1008.54 1009.54 1010.58 1011.54 1012.33 1012.91 1013.30 1013.53 1013.68 1013.84 1014.05 1014.32 1014.63 1014.95 1015.22 1015.43 1015.55 1015.62 1015.69 1015.80 1016.00 1016.28 1016.62 1016.97 1017.26 1017.43 1017.44
1009.66 1009.57 1009.20 1008.57 1007.78 1006.95 1006.22 1005.70 1005.47 1005.56 1005.90 1006.39 1006.91 1007.35 1007.62 1007.69 1007.59 1007.41 1007.28 1007.31 1007.56 1008.08 1008.82 1009.71 1010.64 1011.50 1012.20 1012.71 1013.06 1013.28 1013.45 1013.63 1013.87 1014.17 1014.50 1014.82 1015.09 1015.28 1015.39 1015.47 1015.54 1015.67 1015.89 1016.19 1016.55 1016.90 1017.18 1017.33 1017.33
1009.53 1009.32 1008.85 1008.17 1007.39 1006.63 1006.02 1005.65 1005.59 1005.84 1006.31 1006.90 1007.48 1007.94 1008.20 1008.26 1008.14 1007.96 1007.82 1007.83 1008.05 1008.51 1009.17 1009.96 1010.78 1011.52 1012.12 1012.56 1012.86 1013.07 1013.26 1013.47 1013.74 1014.07 1014.41 1014.74 1015.00 1015.18 1015.28 1015.35 1015.42 1015.54 1015.76 1016.06 1016.41 1016.75 1017.02 1017.16 1017.15
1009.38 1009.10 1008.60 1007.94 1007.22 1006.56 1006.08 1005.85 1005.90 1006.22 1006.73 1007.32 1007.87 1008.30 1008.53 1008.58 1008.48 1008.33 1008.24 1008.28 1008.52 1008.97 1009.58 1010.29 1010.99 1011.62 1012.13 1012.50 1012.75 1012.95 1013.15 1013.39 1013.69 1014.04 1014.41 1014.74 1014.99 1015.16 1015.24 1015.29 1015.34 1015.45 1015.65 1015.93 1016.25 1016.58 1016.83 1016.95 1016.93
1009.23 1008.96 1008.49 1007.91 1007.31 1006.79 1006.43 1006.30 1006.41 1006.73 1007.19 1007.70 1008.16 1008.49 1008.67 1008.71 1008.64 1008.56 1008.55 1008.68 1008.98 1009.44 1010.03 1010.68 1011.30 1011.83 1012.24 1012.54 1012.75 1012.93 1013.14 1013.40 1013.72 1014.09 1014.47 1014.80 1015.04 1015.20 1015.27 1015.30 1015.33 1015.42 1015.59 1015.83 1016.12 1016.41 1016.63 1016.74 1016.71
1009.15 1008.91 1008.54 1008.10 1007.66 1007.30 1007.07 1007.02 1007.14 1007.41 1007.76 1008.12 1008.42 1008.63 1008.73 1008.75 1008.72 1008.72 1008.81 1009.05 1009.42 1009.93 1010.52 1011.11 1011.66 1012.11 1012.44 1012.67 1012.85 1013.01 1013.21 1013.48 1013.81 1014.19 1014.56 1014.88 1015.12 1015.27 1015.34 1015.36 1015.38 1015.45 1015.59 1015.80 1016.05 1016.29 1016.48 1016.56 1016.53
1009.14 1008.99 1008.75 1008.48 1008.23 1008.04 1007.95 1007.96 1008.07 1008.25 1008.46 1008.64 1008.77 1008.84 1008.85 1008.83 1008.83 1008.91 1009.10 1009.43 1009.88 1010.43 1011.01 1011.57 1012.05 1012.42 1012.69 1012.87 1013.01 1013.15 1013.33 1013.59 1013.91 1014.27 1014.63 1014.94 1015.17 1015.32 1015.39 1015.42 1015.45 1015.52 1015.64 1015.83 1016.04 1016.25 1016.40 1016.45 1016.40
1009.22 1009.16 1009.07 1008.99 1008.94 1008.93 1008.97 1009.05 1009.14 1009.24 1009.29 1009.31 1009.27 1009.19 1009.11 1009.05 1009.07 1009.20 1009.47 1009.86 1010.36 1010.92 1011.48 1012.00 1012.42 1012.73 1012.95 1013.08 1013.18 1013.30 1013.46 1013.69 1013.98 1014.31 1014.63 1014.91 1015.13 1015.28 1015.37 1015.43 1015.49 1015.58 1015.72 1015.89 1016.09 1016.27 1016.39 1016.41 1016.34
1009.37 1009.40 1009.46 1009.55 1009.69 1009.85 1010.02 1010.16 1010.25 1010.27 1010.22 1010.08 1009.90 1009.71 1009.55 1009.46 1009.48 1009.64 1009.94 1010.35 1010.85 1011.39 1011.91 1012.37 1012.73 1012.99 1013.16 1013.27 1013.35 1013.44 1013.58 1013.76 1014.00 1014.27 1014.54 1014.78 1014.98 1015.14 1015.25 1015.36 1015.46 1015.60 1015.77 1015.96 1016.15 1016.32 1016.41 1016.42 1016.33
1009.54 1009.65 1009.83 1010.09 1010.39 1010.71 1010.99 1011.20 1011.30 1011.27 1011.13 1010.90 1010.63 1010.36 1010.14 1010.02 1010.04 1010.19 1010.48 1010.87 1011.33 1011.81 1012.26 1012.65 1012.95 1013.17 1013.32 1013.42 1013.49 1013.57 1013.67 1013.81 1013.98 1014.17 1014.37 1014.56 1014.73 1014.89 1015.03 1015.18 1015.35 1015.55 1015.76 1015.99 1016.20 1016.36 1016.46 1016.46 1016.36
1009.68 1009.85 1010.14 1010.52 1010.97 1011.41 1011.79 1012.05 1012.17 1012.12 1011.94 1011.65 1011.33 1011.02 1010.78 1010.65 1010.65 1010.79 1011.04 1011.37 1011.75 1012.14 1012.51 1012.82 1013.08 1013.27 1013.41 1013.51 1013.60 1013.67 1013.75 1013.85 1013.95 1014.06 1014.17 1014.29 1014.42 1014.57 1014.73 1014.93 1015.16 1015.42 1015.69 1015.96 1016.19 1016.37 1016.47 1016.48 1016.40
1009.71 1009.94 1010.32 1010.82 1011.38 1011.91 1012.36 1012.67 1012.79 1012.73 1012.53 1012.23 1011.89 1011.58 1011.35 1011.22 1011.22 1011.33 1011.53 1011.79 1012.08 1012.37 1012.65 1012.89 1013.11 1013.29 1013.45 1013.58 1013.70 1013.79 1013.87 1013.92 1013.95 1013.98 1014.01 1014.05 1014.12 1014.24 1014.42 1014.65 1014.93 1015.24 1015.56 1015.86 1016.12 1016.32 1016.44 1016.47 1016.42
1009.61 1009.92 1010.39 1010.98 1011.62 1012.22 1012.71 1013.02 1013.14 1013.06 1012.84 1012.53 1012.21 1011.92 1011.72 1011.62 1011.63 1011.73 1011.89 1012.08 1012.29 1012.49 1012.68 1012.87 1013.06 1013.26 1013.45 1013.64 1013.81 1013.94 1014.02 1014.05 1014.04 1013.99 1013.93 1013.90 1013.91 1013.99 1014.15 1014.40 1014.70 1015.04 1015.39 1015.71 1015.99 1016.21 1016.34 1016.40 1016.39
1009.39 1009.79 1010.37 1011.05 1011.75 1012.39 1012.87 1013.16 1013.23 1013.11 1012.86 1012.54 1012.22 1011.97 1011.81 1011.75 1011.79 1011.90 1012.05 1012.20 1012.35 1012.49 1012.63 1012.79 1012.98 1013.20 1013.45 1013.71 1013.94 1014.12 1014.24 1014.27 1014.22 1014.11 1013.99 1013.88 1013.83 1013.86 1013.99 1014.22 1014.52 1014.86 1015.21 1015.54 1015.81 1016.03 1016.18 1016.26 1016.29
1009.10 1009.63 1010.33 1011.09 1011.84 1012.48 1012.93 1013.15 1013.14 1012.94 1012.62 1012.27 1011.95 1011.72 1011.60 1011.60 1011.69 1011.84 1012.00 1012.15 1012.28 1012.40 1012.52 1012.68 1012.89 1013.15 1013.46 1013.79 1014.09 1014.34 1014.49 1014.53 1014.47 1014.33 1014.16 1013.99 1013.89 1013.87 1013.96 1014.15 1014.41 1014.73 1015.05 1015.35 1015.60 1015.80 1015.95 1016.05 1016.11
1008.84 1009.52 1010.34 1011.19 1011.97 1012.58 1012.96 1013.08 1012.95 1012.64 1012.22 1011.80 1011.45 1011.23 1011.15 1011.21 1011.36 1011.57 1011.78 1011.97 1012.13 1012.26 1012.40 1012.58 1012.82 1013.12 1013.49 1013.87 1014.24 1014.54 1014.74 1014.81 1014.75 1014.60 1014.40 1014.20 1014.05 1013.99 1014.03 1014.17 1014.39 1014.65 1014.93 1015.18 1015.39 1015.55 1015.68 1015.77 1015.86
1008.71 1009.54 1010.47 1011.39 1012.18 1012.75 1013.03 1013.02 1012.75 1012.29 1011.75 1011.24 1010.84 1010.60 1010.55 1010.66 1010.88 1011.17 1011.46 1011.72 1011.94 1012.12 1012.30 1012.52 1012.79 1013.13 1013.53 1013.96 1014.37 1014.71 1014.94 1015.04 1015.00 1014.86 1014.66 1014.44 1014.27 1014.17 1014.17 1014.26 1014.42 1014.63 1014.83 1015.02 1015.17 1015.29 1015.38 1015.46 1015.55
1008.78 1009.73 1010.74 1011.70 1012.47 1012.97 1013.14 1012.99 1012.56 1011.96 1011.29 1010.67 1010.21 1009.95 1009.91 1010.06 1010.35 1010.73 1011.11 1011.46 1011.76 1012.01 1012.25 1012.50 1012.80 1013.16 1013.58 1014.02 1014.44 1014.79 1015.05 1015.17 1015.16 1015.04 1014.85 1014.65 1014.47 1014.35 1014.32 1014.37 1014.48 1014.62 1014.76 1014.88 1014.97 1015.03 1015.07 1015.13 1015.20
1009.05 1010.07 1011.11 1012.05 1012.77 1013.18 1013.24 1012.96 1012.39 1011.65 1010.87 1010.16 1009.64 1009.35 1009.31 1009.50 1009.87 1010.32 1010.80 1011.24 1011.63 1011.96 1012.25 1012.54 1012.86 1013.22 1013.62 1014.04 1014.44 1014.79 1015.04 1015.17 1015.19 1015.09 1014.94 1014.76 1014.59 1014.48 1014.43 1014.45 1014.51 1014.60 1014.68 1014.75 1014.78 1014.79 1014.78 1014.79 1014.83
1009.47 1010.47 1011.47 1012.34 1012.98 1013.29 1013.23 1012.84 1012.17 1011.34 1010.49 1009.73 1009.16 1008.86 1008.84 1009.06 1009.48 1010.00 1010.56 1011.09 1011.56 1011.96 1012.31 1012.62 1012.94 1013.27 1013.64 1014.01 1014.37 1014.69 1014.92 1015.05 1015.08 1015.02 1014.90 1014.75 1014.61 1014.51 1014.46 1014.46 1014.50 1014.54 1014.59 1014.60 1014.59 1014.55 1014.51 1014.48 1014.48
1009.91 1010.82 1011.70 1012.45 1012.96 1013.16 1013.01 1012.55 1011.83 1010.97 1010.10 1009.34 1008.79 1008.50 1008.50 1008.76 1009.22 1009.80 1010.42 1011.02 1011.55 1012.00 1012.38 1012.71 1013.01 1013.32 1013.63 1013.95 1014.25 1014.51 1014.71 1014.83 1014.87 1014.83 1014.75 1014.64 1014.53 1014.45 1014.41 1014.40 1014.42 1014.44 1014.45 1014.44 1014.40 1014.33 1014.26 1014.19 1014.15
1010.26 1010.99 1011.68 1012.26 1012.61 1012.70 1012.48 1011.99 1011.29 1010.47 1009.66 1008.96 1008.47 1008.24 1008.28 1008.58 1009.07 1009.69 1010.34 1010.98 1011.56 1012.04 1012.44 1012.78 1013.06 1013.33 1013.59 1013.84 1014.08 1014.28 1014.45 1014.55 1014.59 1014.57 1014.52 1014.44 1014.36 1014.30 1014.27 1014.26 1014.27 1014.27 1014.27 1014.23 1014.18 1014.10 1014.00 1013.91 1013.83
1010.38 1010.88 1011.35 1011.71 1011.91 1011.88 1011.62 1011.15 1010.51 1009.80 1009.12 1008.55 1008.17 1008.03 1008.14 1008.47 1009.00 1009.63 1010.30 1010.95 1011.54 1012.05 1012.46 1012.79 1013.06 1013.29 1013.50 1013.70 1013.88 1014.04 1014.17 1014.25 1014.29 1014.29 1014.25 1014.20 1014.15 1014.11 1014.07 1014.06 1014.06 1014.05 1014.02 1013.98 1013.92 1013.83 1013.72 1013.62 1013.51
Thickness
5840 5842 5842 5835 5817 5802 5793 5821 5848 5851 5858 5870 5872 5865 5846 5835 5823 5808 5839 5851 5843 5832 5823 5816 5812 5807 5803 5800 5796 5793 5790 5787 5784 5781 5778 5775 5773 5771 5769 5767 5766 5764 5763 5761 5760 5758 5757 5756 5755
5845 5847 5842 5831 5811 5787 5787 5821 5839 5855 5866 5875 5872 5863 5846 5838 5843 5840 5844 5846 5840 5830 5821 5815 5808 5804 5801 5797 5794 5790 5787 5784 5781 5779 5776 5773 5771 5769 5767 5765 5764 5762 5761 5759 5758 5757 5755 5754 5753
5844 5847 5833 5828 5818 5807 5810 5838 5850 5865 5874 5871 5863 5860 5845 5836 5844 5843 5845 5846 5838 5829 5820 5810 5805 5801 5797 5794 5791 5788 5785 5782 5779 5776 5774 5771 5769 5767 5765 5763 5762 5760 5759 5757 5756 5755 5754 5753 5751
5840 5840 5834 5825 5819 5832 5840 5851 5859 5860 5865 5871 5862 5841 5836 5846 5849 5847 5848 5844 5835 5826 5816 5807 5802 5798 5794 5791 5787 5785 5782 5779 5777 5774 5771 5769 5767 5765 5763 5761 5760 5758 5757 5755 5754 5752 5751 5750 5749
5840 5830 5818 5816 5824 5836 5846 5857 5859 5852 5851 5859 5854 5828 5821 5842 5851 5848 5845 5840 5832 5823 5812 5804 5798 5794 5791 5787 5784 5782 5779 5777 5774 5772 5769 5767 5765 5763 5761 5759 5758 5756 5755 5753 5751 5750 5749 5748 5748
5827 5826 5806 5809 5827 5841 5848 5857 5856 5849 5847 5850 5844 5826 5817 5836 5841 5842 5843 5838 5832 5821 5810 5800 5794 5790 5787 5784 5781 5778 5776 5774 5771 5769 5767 5764 5763 5761 5759 5757 5756 5754 5753 5751 5749 5748 5747 5746 5745
5817 5811 5806 5816 5828 5837 5849 5857 5849 5843 5840 5844 5843 5819 5811 5819 5832 5840 5838 5836 5829 5818 5807 5799 5792 5788 5784 5781 5778 5775 5773 5771 5768 5766 5764 5762 5760 5758 5757 5755 5753 5752 5750 5749 5747 5746 5745 5744 5743
5829 5813 5807 5819 5827 5836 5853 5852 5851 5844 5837 5851 5846 5818 5800 5812 5829 5834 5832 5829 5822 5814 5806 5799 5792 5787 5783 5779 5775 5772 5769 5767 5765 5763 5761 5759 5758 5756 5755 5753 5751 5750 5748 5747 5745 5744 5742 5741 5741
5831 5803 5799 5818 5826 5835 5848 5842 5846 5850 5838 5835 5836 5829 5819 5820 5826 5823 5819 5814 5810 5806 5802 5798 5792 5786 5783 5778 5774 5769 5767 5764 5762 5759 5757 5756 5755 5755 5753 5752 5750 5748 5746 5745 5744 5743 5741 5740 5739
5820 5798 5810 5828 5834 5832 5837 5835 5836 5832 5818 5813 5811 5816 5820 5818 5815 5811 5808 5803 5798 5796 5795 5795 5790 5786 5782 5779 5771 5769 5766 5762 5760 5758 5755 5753 5753 5753 5752 5750 5747 5746 5744 5743 5742 5741 5739 5738 5738
5820 5810 5820 5829 5836 5834 5830 5831 5835 5821 5801 5798 5796 5801 5806 5807 5805 5802 5801 5799 5794 5793 5791 5788 5786 5783 5779 5774 5769 5768 5765 5760 5757 5755 5752 5750 5750 5749 5748 5746 5744 5742 5741 5740 5740 5739 5738 5738 5738
5817 5819 5824 5827 5832 5828 5823 5822 5818 5810 5801 5802 5801 5802 5798 5796 5792 5793 5793 5791 5789 5788 5785 5784 5781 5777 5773 5769 5766 5764 5760 5757 5754 5752 5749 5747 5745 5745 5744 5742 5740 5738 5737 5737 5737 5736 5735 5735 5735
5816 5819 5826 5829 5828 5826 5820 5810 5803 5800 5801 5804 5801 5796 5790 5788 5786 5789 5790 5788 5785 5781 5778 5776 5774 5771 5767 5763 5761 5757 5754 5752 5750 5747 5744 5742 5740 5739 5739 5737 5736 5735 5735 5735 5733 5733 5732 5732 5732
5818 5820 5821 5823 5823 5822 5806 5796 5791 5793 5798 5795 5793 5787 5783 5780 5779 5778 5778 5778 5778 5776 5773 5771 5767 5764 5760 5756 5753 5751 5749 5746 5745 5743 5740 5737 5736 5734 5733 5733 5733 5732 5731 5731 5730 5730 5729 5729 5730
5821 5808 5806 5812 5815 5812 5802 5775 5773 5783 5791 5785 5784 5781 5777 5773 5769 5769 5773 5774 5774 5773 5769 5765 5761 5758 5755 5751 5749 5747 5745 5743 5741 5737 5735 5733 5731 5730 5729 5730 5729 5728 5728 5728 5727 5727 5727 5727 5728
5805 5791 5780 5798 5808 5808 5787 5750 5763 5776 5778 5775 5775 5772 5769 5764 5763 5764 5767 5770 5770 5767 5763 5760 5759 5754 5751 5748 5745 5743 5741 5740 5737 5734 5732 5729 5727 5726 5726 5726 5725 5725 5725 5725 5724 5723 5722 5721 5722
5789 5778 5778 5789 5805 5800 5781 5751 5760 5773 5772 5766 5765 5764 5763 5759 5759 5762 5763 5765 5763 5760 5757 5754 5752 5749 5747 5744 5741 5739 5737 5737 5735 5732 5729 5726 5724 5723 5722 5722 5721 5721 5721 5720 5719 5717 5716 5715 5715
5787 5788 5787 5785 5798 5795 5774 5758 5764 5772 5770 5761 5759 5759 5758 5754 5755 5759 5761 5760 5758 5756 5753 5751 5748 5746 5742 5741 5738 5736 5735 5734 5731 5729 5725 5723 5721 5719 5718 5718 5717 5716 5715 5713 5712 5711 5710 5710 5711
5805 5796 5786 5789 5801 5789 5774 5763 5764 5771 5766 5760 5758 5754 5752 5752 5756 5757 5757 5756 5755 5752 5749 5747 5745 5741 5739 5736 5734 5731 5730 5729 5729 5726 5723 5721 5718 5716 5714 5712 5711 5710 5709 5707 5706 5704 5703 5704 5707
5804 5790 5785 5791 5800 5788 5766 5756 5761 5767 5765 5762 5758 5754 5751 5750 5750 5751 5752 5753 5750 5748 5746 5745 5742 5740 5738 5735 5732 5731 5728 5727 5727 5724 5720 5718 5715 5712 5711 5707 5705 5704 5702 5701 5700 5698 5696 5696 5699
5797 5790 5787 5786 5790 5783 5759 5743 5748 5757 5765 5764 5761 5758 5756 5753 5750 5750 5750 5750 5750 5747 5746 5745 5741 5738 5736 5734 5732 5729 5726 5723 5721 5719 5716 5714 5711 5708 5705 5703 5701 5698 5696 5695 5694 5693 5691 5688 5690
5787 5802 5796 5790 5774 5753 5752 5724 5737 5750 5754 5759 5759 5759 5757 5757 5755 5752 5751 5750 5749 5749 5748 5744 5740 5737 5734 5731 5727 5723 5719 5715 5715 5714 5712 5710 5707 5705 5702 5700 5697 5693 5691 5689 5688 5689 5685 5683 5681
5799 5806 5793 5782 5762 5743 5745 5734 5734 5750 5745 5752 5759 5760 5760 5759 5758 5756 5755 5753 5753 5752 5748 5744 5739 5735 5732 5729 5725 5720 5716 5714 5712 5709 5707 5705 5704 5702 5700 5697 5693 5689 5685 5683 5682 5680 5679 5677 5675
5812 5800 5782 5766 5745 5716 5740 5743 5731 5749 5751 5754 5760 5764 5763 5763 5762 5760 5758 5756 5754 5753 5749 5744 5737 5732 5729 5726 5722 5717 5713 5709 5705 5702 5700 5699 5699 5698 5697 5694 5689 5684 5681 5678 5676 5674 5672 5671 5670
5801 5778 5748 5726 5710 5714 5755 5755 5750 5769 5773 5769 5767 5767 5769 5767 5764 5760 5757 5754 5752 5750 5747 5743 5736 5729 5726 5723 5719 5714 5710 5706 5702 5700 5697 5695 5693 5691 5689 5686 5682 5678 5675 5672 5670 5668 5666 5665 5663
5794 5783 5753 5731 5726 5735 5755 5750 5764 5785 5785 5782 5778 5776 5773 5770 5767 5763 5760 5756 5753 5750 5745 5740 5733 5727 5723 5720 5715 5711 5707 5704 5701 5697 5693 5690 5688 5686 5683 5680 5676 5673 5669 5667 5664 5662 5660 5660 5658
5790 5788 5796 5774 5761 5743 5748 5756 5767 5785 5783 5781 5778 5776 5773 5771 5769 5766 5762 5758 5754 5749 5744 5739 5731 5725 5721 5717 5713 5709 5706 5701 5697 5693 5690 5688 5684 5681 5678 5673 5670 5667 5664 5661 5658 5655 5653 5652 5651
5808 5801 5791 5773 5748 5731 5736 5745 5746 5763 5772 5777 5777 5775 5774 5774 5770 5767 5762 5758 5753 5748 5743 5737 5731 5724 5720 5716 5712 5710 5705 5701 5697 5692 5687 5683 5679 5676 5672 5668 5664 5661 5658 5655 5652 5649 5647 5645 5643
5794 5794 5788 5781 5773 5741 5716 5733 5773 5775 5781 5779 5779 5779 5777 5774 5772 5767 5762 5757 5751 5746 5741 5734 5729 5724 5719 5715 5711 5706 5702 5699 5695 5690 5686 5681 5676 5672 5667 5663 5659 5655 5652 5648 5645 5642 5639 5637 5636
5793 5792 5786 5765 5760 5762 5746 5746 5790 5791 5792 5789 5786 5784 5782 5778 5774 5769 5762 5755 5749 5743 5739 5734 5729 5723 5719 5715 5710 5705 5701 5696 5691 5687 5682 5677 5672 5667 5663 5658 5653 5649 5646 5642 5638 5634 5632 5629 5627